Location: Unspecified
(51.5147°N, 7.4673°E)
Time: 17:53:10
(UTC+01:00)

Explorer 7 - Pass Details

Date: 20 February 2026
Orbit: 430 x 541 km, 50.2° (Epoch: 12 March)

Event Time Altitude Azimuth Distance (km) Brightness Sun altitude
Rises 15:00:01 0° 223° (SW) 2,413 11.6 21.1°
Reaches altitude 10° 15:02:16 10° 212° (SSW) 1,560 11.4 20.9°
Maximum altitude 15:05:20 28° 151° (SSE) 875 8.3 20.6°
Drops below altitude 10° 15:08:29 10° 91° (E) 1,614 8.9 20.3°
Sets 15:10:52 0° 79° (E) 2,515 9.8 20.1°
